User: anonymous   Login
Location: Fort Wayne
(41.1310°N, 85.1290°W)
Time: 13:45:55
(UTC-04:00)
Language:

Meteor 2-9 Rocket - Orbit

View from above orbital plane
View from above orbital plane
View from above satellite
View from above satellite

Ground track
Ground track

The orbit data is extracted from the following two-line orbital elements,

1 13719U 82116B   15208.46112039 -.00000000  00000-0 -69171-5 0  9992
2 13719 081.2566 316.9884 0072230 162.3053 271.8793 14.14549776682713
Epoch (UTC): 27 July 2015 11:04:00
Eccentricity: 0.0072230
inclination: 81.2566°
perigee height: 791 km
apogee height: 896 km
right ascension of ascending node: 316.9884°
argument of perigee: 162.3053°
revolutions per day: 14.14549776
mean anomaly at epoch: 271.8793°
orbit number at epoch: 68271

The dashed part of the orbit path shows where the satellite is in the earth's shadow,  

DLR